Location: Arrien
(42.8963°N, 1.0429°E)
Time: 00:07:27
(UTC+00:00)

SMAP - Visible Passes

Search period start: 14 March 2026 00:00
Search period end: 24 March 2026 00:00
Orbit: 681 x 683 km, 98.1° (Epoch: 13 March)

Date Brightness Start Highest point End Pass type
(mag) Time Alt. Az. Time Alt. Az. Time Alt. Az.
15 Mar 5.9 05:21:43 10° NE 05:25:24 23° E 05:29:02 10° SE visible
16 Mar 6.4 18:40:57 10° SW 18:43:34 15° W 18:46:12 10° NW visible
17 Mar 6.4 04:58:43 10° ENE 05:00:51 13° E 05:03:00 10° ESE visible
19 Mar 6.8 18:54:43 10° WSW 18:55:57 11° W 18:57:12 10° WNW visible
20 Mar 6.2 05:10:08 10° NE 05:13:13 17° E 05:16:17 10° SE visible
23 Mar 6.0 05:21:51 10° NE 05:25:32 23° E 05:29:12 10° SE visible
